Regional Weather Roundup
Issued by NWS Pendleton, OR

Home | Current Version | Previous Version | Text Only | Print | Product List | Glossary On
Versions: 1 2 3 4 5 6 7 8 9 10 11 12 13 14 15 16 17 18 19 20 21 22 23 24 25 26 27 28 29 30 31 32 33 34 35 36 37 38 39 40 41 42 43 44 45 46 47 48 49 50
000
ASUS46 KPDT 270710
RWRPDT
PENDLETON REGIONAL WEATHER ROUNDUP
NATIONAL WEATHER SERVICE PENDLETON OREGON
1200 AM PDT FRI MAR 27 2015

NOTE: FAIR INDICATES FEW OR NO CLOUDS BELOW 12,000 FEET WITH NO
SIGNIFICANT WEATHER AND/OR OBSTRUCTIONS TO VISIBILITY.

# INDICATES UNOFFICIAL STATION AND DATA

WAZ520-270810-
EAST SLOPES OF WASHINGTON CASCADES

CITY            SKY/WX      TMP DP  RH  WIND    PRES   REMARKS
#BUMPING DAM    N/A         39  N/A N/A CALM    N/A
#CLE ELUM HS    N/A         44  43  96  CALM    30.12S
#CLE ELUM LAKE  N/A         50  46  86  CALM    30.13F
#CLIFFDEL 2NW   N/A         44  42  93  CALM    N/A
#EASTON DOT     N/A         47  46  96  N1      N/A
#GLENWOOD       N/A         42  40  93  CALM    30.14S
#MANASTASH CYN  N/A         45  39  79  CALM    30.15S
#NELSON 3SW     N/A         44  43  96  CALM    30.40S
#NILE           N/A         43  41  93  CALM    29.44S
#PEOH POINT     N/A         50  45  83  E3      N/A
#RONALD 2NW     N/A         50  -5  10  NE1     30.04S
#SNOWDEN        N/A         63  35  35  CALM    N/A
#SOUTH BLEWITT  N/A         42  41  96  CALM    N/A
#TEANAWAY 4NE   N/A         46  45  96  CALM    N/A
#TROUT LAKE 1NE N/A         47  46  96  CALM    30.15S
$$

WAZ521-270810-
SIMCOE HIGHLANDS

CITY            SKY/WX      TMP DP  RH  WIND    PRES   REMARKS
#SATUS PASS DOT N/A         48  44  86  CALM    N/A
#CENTERVILLE 4W N/A         54  47  77  CALM    29.89F
#CENTERVILLE 1SWN/A         46  43  89  CALM    30.10F
#GOLDENDALE     N/A         52  47  83  E2      N/A
#GOLDENDALE 1NE N/A         52  38  59  N5      N/A
#GOLDENDALE 5WNWN/A         50  46  86  CALM    30.12S
#GOODNOE HILLS  N/A         59  46  62  CALM    N/A
#LYLE 6NE       N/A         57  50  77  CALM    30.09F
$$

WAZ026-270810-
KITTITAS VALLEY

CITY            SKY/WX      TMP DP  RH  WIND    PRES   REMARKS
ELLENSBURG AP   CLEAR       51  45  80  N3      30.16F
#ELLENSBURG CWU N/A         49  45  86  CALM    30.10S
#ELLENSBURG 3NE N/A         51  46  83  CALM    30.16S
#ELLENSBURG 1E  N/A         49  43  80  CALM    N/A
#KITTITAS 4N    N/A         50  44  80  N1      28.47F
#KITTITAS 3S    N/A         45  43  93  CALM    30.14S
#THORP 6N       N/A         49  45  86  N3      30.18S
$$

WAZ027-270810-
YAKIMA VALLEY

CITY            SKY/WX      TMP DP  RH  WIND    PRES   REMARKS
SUNNYSIDE AP    CLEAR       49  45  86  CALM    30.14S
YAKIMA AIRPORT  CLEAR       51  45  80  W7      30.15F
#DONALD 2NE     N/A         60  43  53  CALM    28.99F
#MABTON         N/A         51  44  77  CALM    30.13F
#MOXEE 2E       N/A         52  42  69  N1      30.07R
#NACHES 2SW     N/A         53  48  83  NW2     30.17F
#TERRACE HTS    N/A         52  48  86  CALM    30.11S
#TOPPENISH      N/A         55  49  80  CALM    30.05F
#WAPATO 4NE     N/A         60  43  53  CALM    28.99F
#WEST VALLEY    N/A         51  47  86  CALM    30.12F
#W YAKIMA       N/A         55  48  77  NW3     30.13F
#WHITE SWAN 5E  N/A         51  48  89  W2      30.14S
#WILEY CITY 3W  N/A         52  44  74  NW2     30.16S
$$

WAZ028-270810-
LOWER COLUMBIA BASIN...WASHINGTON

CITY            SKY/WX      TMP DP  RH  WIND    PRES   REMARKS
PASCO           CLEAR       48  45  89  N6      30.14S
PROSSER AWOS    N/A         48  48  100 S2      30.17S
RICHLAND AWOS   CLEAR       52  50  93  W3      30.14S
#BASIN CITY 5SW N/A         52  48  86  E2      30.14S
#BENTON CITY    N/A         59  48  67  CALM    30.03F
#CONNELL 5N     N/A         51  46  83  CALM    30.13F
#CONNELL 5NW    N/A         50  46  86  CALM    30.09F
#ELTOPIA        N/A         54  48  80  N2      30.08F
#KAHLOTUS       N/A         53  47  80  S2      30.13F
#KENNEWICK 3S   N/A         56  47  72  CALM    30.13F
#PASCO-BROADMOORN/A         54  48  80  CALM    30.03S
#PATERSON       N/A         63  48  58  N1      30.10S
#PROSSER DOT    N/A         52  49  89  SW1     N/A
#PROSSER        N/A         56  46  69  SW5     30.13R
#SAGEMOOR 2W    N/A         56  49  77  CALM    29.97F
#TOUCHET 2S     N/A         50  47  89  CALM    30.10F
#WEST PASCO     N/A         54  46  74  CALM    30.13F
$$

WAZ029-270810-
FOOTHILLS OF THE BLUES...WASHINGTON

CITY            SKY/WX      TMP DP  RH  WIND    PRES   REMARKS
WALLA WALLA AP  CLEAR       56  46  69  E7      30.13F
#DAYTON SCHOOL  N/A         53  41  64  N1      30.16S
#LOWDEN 2SE     N/A         49  47  93  CALM    30.09S
#PLEASANT VIEW 1N/A         54  47  77  CALM    30.17F
#PRESCOTT       N/A         53  49  86  E2      30.11F
#SUDBURY        N/A         51  N/A N/A CALM    N/A
#WHITMAN COLLEGEN/A         60  49  67  CALM    30.16S
#WAITSBURG 5S   N/A         56  46  69  E7      30.21F
#WAITSBURG 8N   N/A         56  28  34  N3      30.03R
#WALLA WALLA 5E N/A         54  47  77  NE7     N/A
#WALLA WALLA U  N/A         56  49  77  CALM    30.11F
#WHITMAN MISSIONN/A         50  47  89  CALM    30.12F
$$

WAZ030-270810-
BLUE MOUNTAINS...WASHINGTON

CITY            SKY/WX      TMP DP  RH  WIND    PRES   REMARKS
#DIXIE 5SE      N/A         60  40  47  CALM    30.11F
$$

ORZ009-041-WAZ024-270810-
COLUMBIA RIVER GORGE

CITY            SKY/WX      TMP DP  RH  WIND    PRES   REMARKS
HOOD RIVER AP   CLEAR       52  48  86  CALM    30.14S
THE DALLES AP   CLEAR       53  49  86  CALM    30.12S
#ARLINGTON AIRPON/A         57  47  69  NW3     26.99R
#CELILO DOT     N/A         57  47  69  CALM    N/A
#LYLE           N/A         57  51  80  N3      30.14S
#MARYHILL       N/A         59  49  69  CALM    N/A
#MOSIER 1S      N/A         52  45  77  CALM    30.12S
#MURDOCK        N/A         58  53  83  W5      30.14S
#RUFUS DOT      N/A         N/A N/A N/A CALM    N/A

$$

ORZ510-270810-
NORTH CENTRAL OREGON

CITY            SKY/WX      TMP DP  RH  WIND    PRES   REMARKS
#CHENOWITH 1W   N/A         57  48  72  N3      N/A
#COW CYN RST AREN/A         55  47  74  NW5     N/A
#DUFUR 9E       N/A         58  47  67  E3      30.16F
#GRASS VALLEY 1SN/A         50  45  83  CALM    30.14F
#KENT DOT       N/A         52  43  71  NE3     N/A
#MAUPIN SCHOOL  N/A         55  48  77  CALM    30.15S
#MORO SCHOOL    N/A         47  46  96  CALM    30.15S
#SHANIKO 5WSW   N/A         55  42  61  NE8     N/A
#SHANIKO 4NW    N/A         53  46  77  E5      30.17F
#TYGH VALLEY 2NEN/A         53  49  86  CALM    30.12S
#WAPANITIA AIRPON/A         50  46  86  CALM    30.14F
#WASCO DOT      N/A         46  44  93  E2      N/A
#WASCO 5NE      N/A         46  43  89  CALM    30.13F
$$

ORZ511-270810-
CENTRAL OREGON

CITY            SKY/WX      TMP DP  RH  WIND    PRES   REMARKS
BEND AIRPORT    CLEAR       50  41  71  S6      30.19S
MADRAS AIRPORT  CLEAR       48  46  93  SE6     30.18S
PRINEVILLE AP   CLEAR       52  45  77  SE6     30.18R
REDMOND AIRPORT CLEAR       49  43  80  S8      30.18R
#BEND 6E        N/A         50  39  66  CALM    30.05F
#BEND 1SW       N/A         44  41  89  S1      N/A
#BEND-AWBREY    N/A         53  44  71  SE3     30.13S
#BEND-KIM LN    N/A         52  44  74  SW2     30.17R
#CULVER         N/A         50  44  80  CALM    30.13S
#LAKE BILLY CHINN/A         54  34  47  CALM    30.20S
#MADRAS         N/A         51  46  83  SE3     N/A
#POWELL BUTTE   N/A         54  45  71  SW6     29.80R
#PRINEVILLE 3N  N/A         50  45  83  E3      30.09R
#WARM SPRINGS   N/A         59  49  69  SW2     30.10S

$$


ORZ509-270810-
EAST SLOPES OF OREGON CASCADES

CITY            SKY/WX      TMP DP  RH  WIND    PRES   REMARKS
#BLUE BOX PASS  N/A         51  -2  11  CALM    N/A
#CAMP SHERMAN   N/A         42  38  86  CALM    30.15F
#LA PINE DOT    N/A         42  36  79  CALM    N/A
#LA PINE 4NW    N/A         42  36  79  CALM    30.22R
#LAVA BUTTE DOT N/A         44  38  79  CALM    N/A
#SISTERS AIRPOR N/A         43  42  96  CALM    30.17S
#SISTERS ODOT   N/A         44  N/A N/A CALM    N/A
#SISTERS 3N     N/A         42  34  73  CALM    30.19F
#SUNRIVER       N/A         43  40  89  CALM    30.06S
#SUTTLE LK DOT  N/A         40  40  100 E7      N/A
#TUMALO 3W      N/A         55  42  61  SW6     29.99F
#WANOGA BUTTE D N/A         52  37  56  CALM    N/A

$$

ORZ044-270810-
LOWER COLUMBIA BASIN...OREGON

CITY            SKY/WX      TMP DP  RH  WIND    PRES   REMARKS
HERMISTON       CLEAR       50  47  89  CALM    30.12S
#BOARDMAN SCHOOLN/A         50  45  83  CALM    30.13S
#BOARDMAN 8SW   N/A         52  47  83  CALM    30.11S
#ECHO 8SW       N/A         51  39  63  SW5     30.09S
#IONE SCHOOL    N/A         49  34  56  CALM    30.12F
#IRRIGON 4NW    N/A         51  48  89  S1      N/A
#UMATILLA       N/A         71  48  44  CALM    30.03F
$$

ORZ507-270810-
NORTHERN FOOTHILLS OF THE BLUES

CITY            SKY/WX      TMP DP  RH  WIND    PRES   REMARKS
PENDLETON AIRPT CLEAR       49  45  86  E7      30.12F
#ADAMS 3WNW     N/A         52  45  77  CALM    30.12F
#ATHENA         N/A         47  43  86  CALM    30.14S
#CAYUSE         N/A         58  47  67  E7      30.09F
#HELIX SCHOOL   N/A         53  45  74  CALM    30.12S
#HELIX 3N       N/A         56  46  69  E1      30.11S
#HOLDMAN 5SE    N/A         54  46  74  CALM    30.13S
#HOLDMAN 6E     N/A         54  46  74  SW5     29.93S
#M-F FERNDALE   N/A         53  44  71  CALM    30.11S
#M-FREEWATER 5SEN/A         57  45  64  E3      30.12F
#PENDLETON DNTN N/A         52  40  63  CALM    30.14S
#PDT AQUATIC CTRN/A         53  40  61  CALM    30.13S
#PENDLETON 5NE  N/A         51  46  83  CALM    30.09F
#PDT SUNRIDGE   N/A         50  47  89  CALM    30.14S
#PENDLETON 7NW  N/A         51  45  80  CALM    N/A
#PILOT ROCK     N/A         50  43  77  CALM    30.15F
#TUTUILLA       N/A         48  44  86  CALM    30.13F
#UMAPINE 2E     N/A         50  47  89  CALM    30.09S
#WESTON SCHOOL  N/A         62  42  48  CALM    30.12F

$$

ORZ508-270810-
SOUTHERN FOOTHILLS OF THE BLUES

CITY            SKY/WX      TMP DP  RH  WIND    PRES   REMARKS
LEXINGTON       CLEAR       52  46  80  E6      30.15F
#AJAX           N/A         56  39  53  NE1     30.07S
#CONDON SCHOOL  N/A         54  46  74  CALM    30.11S
#CONDON 5W      N/A         54  41  61  E10     30.14S
#FOSSIL SCHOOL  N/A         48  45  89  CALM    30.12S
#HEPPNER EOC    N/A         53  45  74  E6      30.07S
#HEPPNER 4NE    N/A         51  44  77  E2      30.11F
#LEXINGTON 2SE  N/A         50  45  83  CALM    30.11S
#MIKKALO        N/A         50  43  77  NE2     30.12F
#OLEX 4N        N/A         51  46  83  S3      30.11S
#RUGGS 5NE      N/A         50  43  77  SE1     30.33S
#RUGGS 2SW      N/A         54  46  74  CALM    30.13F

$$

ORZ502-503-270810-
BLUE MOUNTAINS

CITY            SKY/WX      TMP DP  RH  WIND    PRES   REMARKS
MEACHAM         CLEAR       40  37  89  CALM    30.22S
#BATTLE MTN DOT N/A         49  46  89  S7      N/A
#HARDMAN 10S    N/A         51  43  74  SE3     30.27S
#HEPPNER 15SE   N/A         50  43  77  CALM    30.11F
#LADD CYN SMT   N/A         48  37  65  S3      N/A
#LADD CREEK ODOTN/A         43  40  89  SW7     N/A
#LONG CREEK HS  N/A         51  45  80  CALM    30.16S
#N POWDER DOT   N/A         40  39  96  CALM    N/A
#PIKES PEAK     N/A         61  41  48  S6      27.99S
#TOLLGATE       N/A         44  39  82  CALM    30.17F
#TROY SCHOOL    N/A         47  44  89  CALM    30.07S
#UKIAH          N/A         41  39  93  CALM    30.25R
#WESTON 4E      N/A         56  43  62  E9      30.09S
$$

ORZ505-270810-
JOHN DAY BASIN

CITY            SKY/WX      TMP DP  RH  WIND    PRES   REMARKS
JOHN DAY        CLEAR       55  42  61  S9      30.23F
#JOHN DAY KJDY  N/A         47  46  96  CALM    30.20R
#DAYVILLE SCHOOLN/A         54  44  69  CALM    30.15R
#MITCHELL       N/A         51  47  86  E3      30.28S
#MONUMENT HS    N/A         51  44  77  CALM    30.16S
#MT. VERNON 5SE N/A         56  42  59  SW6     30.18S
$$

ORZ506-270810-
OCHOCO AND JOHN DAY HIGHLANDS

CITY            SKY/WX      TMP DP  RH  WIND    PRES   REMARKS
#BUCK CREEK DOT N/A         53  53  100 SE10    N/A
#HORSE RIDGE DO N/A         42  36  79  CALM    N/A
#KEYES SMT DOT  N/A         50  41  71  CALM    N/A
#PAULINA SCHOOL N/A         64  43  46  CALM    30.16R
#PINE MTN OBS   N/A         51  38  61  SE7     N/A
#PRAIRIE CITY   N/A         44  39  82  CALM    30.29R
#SENECA         N/A         41  N/A N/A CALM    N/A
#SENECA 9NW     N/A         37  35  92  CALM    30.24S
$$

ORZ049-270810-
GRANDE RONDE VALLEY

CITY            SKY/WX      TMP DP  RH  WIND    PRES   REMARKS
LA GRANDE       CLEAR       57  37  47  S10     30.21S
#COVE           N/A         45  41  86  SE2     30.21F
#COVE SCHOOL    N/A         45  39  79  E1      30.18S
#ELGIN 3N       N/A         42  38  86  CALM    30.19S
#ELGIN 1E       N/A         45  40  82  CALM    N/A
#IMBLER SCHOOL  N/A         46  41  83  CALM    30.17S
#ISLAND CITY 4N N/A         50  48  93  CALM    30.09S
#LADD CYN DOT   N/A         54  39  57  S15     N/A
#UNION 1S       N/A         53  43  69  E7      30.12R
$$

ORZ050-270810-
WALLOWA COUNTY

CITY            SKY/WX      TMP DP  RH  WIND    PRES   REMARKS
#ENTERPRISE HS  N/A         41  38  89  CALM    30.23S
#IMNAHA SCHOOL  N/A         50  42  74  SW2     30.20S
#IMNAHA 10S     N/A         49  40  71  SW7     30.20F
#JOSEPH 3N      N/A         39  33  79  CALM    30.24S
#JOSEPH 3W      N/A         43  37  79  SW3     30.07F
#LOSTINE        N/A         43  38  82  CALM    30.04F
#MT HOWARD 8000 N/A         45  26  47  S2      30.37F
#PROMISE 1S     N/A         45  42  89  CALM    30.31F
#SHEEP RDG 7000 N/A         48  33  56  CALM    30.24F
#WALLOWA SCHOOL N/A         41  39  93  CALM    31.20S



$$



USA.gov is the U.S. government's official web portal to all federal, state and local government web resources and services.